PST,Max TemperatureF,Mean TemperatureF,Min TemperatureF,Max Dew PointF,MeanDew PointF,Min DewpointF,Max Humidity, Mean Humidity, Min Humidity, Max Sea Level PressureIn, Mean Sea Level PressureIn, Min Sea Level PressureIn, Max VisibilityMiles, Mean VisibilityMiles, Min VisibilityMiles, Max Wind SpeedMPH, Mean Wind SpeedMPH, Max Gust SpeedMPH,PrecipitationIn, CloudCover, Events, WindDirDegrees
2013-1-1,62,48,35,37,34,28,100,82,27,30.27,30.19,30.08,10,10,7,7,1,,0.00,1,,289
2013-1-2,64,48,32,32,31,27,93,78,24,30.13,30.10,30.03,12,10,10,8,0,,0.00,0,,286
2013-1-3,71,52,32,32,24,-143,100,74,4,30.21,30.13,30.07,20,10,10,6,1,,0.00,0,,287
2013-1-4,68,49,30,30,27,12,81,68,12,30.27,30.23,30.16,12,10,10,8,1,,0.00,0,,284
2013-1-5,69,50,32,41,33,21,93,79,17,30.29,30.25,30.18,12,10,10,12,1,,0.00,0,,286
2013-1-6,55,46,37,48,41,36,100,91,54,30.24,30.15,30.03,15,9,2,12,1,,0.14,5,Rain,87
2013-1-7,62,50,39,46,42,32,100,90,36,30.08,30.03,29.98,15,9,0,12,2,,0.00,3,Fog-Rain,304
2013-1-8,68,50,33,45,39,28,100,92,23,30.12,30.08,30.00,10,10,10,6,1,,0.00,0,,290
2013-1-9,69,54,39,54,45,39,100,94,38,30.13,30.10,30.06,20,10,4,7,1,,0.00,3,,285
2013-1-10,55,50,42,52,42,32,100,76,44,30.12,30.05,30.00,15,8,6,17,4,25,0.00,5,,244
2013-1-11,53,43,33,36,32,25,93,76,33,30.23,30.14,30.11,10,10,5,12,1,,0.00,2,Rain,178
2013-1-12,57,44,32,36,32,23,100,87,27,30.18,30.12,30.09,20,10,9,9,1,,0.00,0,,284
2013-1-13,53,42,32,30,30,25,93,83,33,30.17,30.13,30.08,15,10,10,12,1,,0.00,1,,282
2013-1-14,55,44,32,30,26,18,93,74,24,30.36,30.24,30.13,12,10,10,12,1,,0.00,0,,306
2013-1-15,62,45,28,30,25,14,81,66,15,30.46,30.38,30.23,20,11,10,7,0,,0.00,0,,300
2013-1-16,48,40,32,36,32,30,93,78,58,30.37,30.26,30.14,10,10,10,4,1,,0.00,0,,317
2013-1-17,78,56,33,32,31,28,93,69,17,30.16,30.13,30.06,10,10,7,12,1,,0.00,0,,298
2013-1-18,66,50,35,32,31,30,81,65,28,30.15,30.13,30.12,10,10,10,0,0,,0.00,0,,-1
2013-1-19,84,58,33,32,31,27,87,63,12,30.20,30.14,30.11,20,10,10,4,0,,0.00,0,,300
2013-1-20,80,58,35,32,29,27,75,55,14,30.15,30.11,30.00,20,10,10,12,1,,0.00,0,,278
2013-1-21,62,48,33,28,28,25,75,60,27,30.11,30.07,30.04,10,10,10,4,0,,0.00,0,,315
2013-1-22,84,58,33,30,26,10,75,54,7,30.12,30.09,30.02,10,10,10,6,1,,0.00,0,,307
2013-1-23,71,58,46,39,33,30,57,45,25,30.15,30.09,30.04,10,10,10,4,0,,0.00,3,,220
2013-1-24,66,60,55,57,45,37,94,62,45,30.20,30.13,30.10,20,12,9,6,1,,0.00,5,,296
2013-1-25,60,58,57,61,57,50,100,97,77,30.14,30.05,29.97,10,8,3,6,2,,0.26,7,Rain,326
2013-1-26,62,60,57,63,58,57,100,100,100,30.04,29.98,29.92,10,6,1,7,2,,0.19,8,Rain,209
2013-1-27,55,50,46,55,47,43,100,87,63,30.09,30.05,30.02,10,7,1,12,4,,0.00,6,,195
2013-1-28,57,48,39,45,41,28,100,87,33,30.23,30.13,30.06,10,10,8,15,5,21,0.00,2,,188
2013-1-29,60,48,37,43,40,37,100,94,42,30.26,30.23,30.20,10,10,10,7,1,,0.00,1,,290
2013-1-30,69,53,37,43,39,37,100,85,33,30.34,30.27,30.24,12,10,10,8,1,,0.00,0,,296
2013-1-31,73,56,39,43,41,37,100,85,27,30.26,30.19,30.13,20,11,10,4,0,,0.00,1,,305